Regional Weather Roundup
Issued by NWS

Home | Current Version | Previous Version | Graphics & Text | Print | Product List | Glossary On
Versions: 1 2 3 4 5 6 7 8 9 10 11 12 13 14 15 16 17 18 19 20 21 22 23 24 25 26 27 28 29 30 31 32 33 34 35 36 37 38 39 40 41 42 43 44 45 46 47 48 49 50
000
ASUS45 KCYS 200910
RWRWY

WYOMING REGIONAL WEATHER ROUNDUP
NATIONAL WEATHER SERVICE CHEYENNE WY
300 AM MDT SUN AUG 20 2017

NOTE:  "FAIR" INDICATES FEW OR NO CLOUDS BELOW 12,000 FEET
WITH NO SIGNIFICANT WEATHER AND/OR OBSTRUCTIONS TO VISIBILITY.

WYZ001-201000-
YELLOWSTONE NATIONAL PARK

CITY           SKY/WX    TMP DP  RH WIND       PRES   REMARKS
LK YELLOWSTONE   N/A     39  34  82 NW3       30.23F
W YELLOWSTONE  NOT AVBL

$$
WYZ002>013-054>058-071-098>099-201000-
NORTHERN WYOMING

CITY           SKY/WX    TMP DP  RH WIND       PRES   REMARKS
JACKSON        CLOUDY    46  31  55 NE5       30.16S
CODY           FAIR      59  38  45 N10       30.09R
GREYBULL       FAIR      65  36  34 W9        29.98R
WORLAND        FAIR      58  36  43 CALM      29.99R
SHERIDAN       FAIR      52  42  69 CALM      30.03F
BUFFALO        FAIR      61  36  39 W6        30.09F
GILLETTE       FAIR      59  40  49 CALM      30.03S
HULETT         FAIR      63  45  51 NE6       30.06F
NEWCASTLE      FAIR      61  34  36 E3        30.00S

$$
WYZ014>020-022>026-101>103-201000-
CENTRAL WYOMING

CITY           SKY/WX    TMP DP  RH WIND       PRES   REMARKS
BIG PINEY      FAIR      45  27  49 N5        30.22S
PINEDALE       FAIR      41  32  70 NW8       30.23S
DUBOIS         CLOUDY    48  25  40 NW10      30.20S
LANDER           N/A    N/A N/A N/A MISG      30.08F
RIVERTON       FAIR      65  23  20 W8        30.07S
CASPER         FAIR      51  36  56 W10       30.09S
DOUGLAS        FAIR      54  39  57 N10       30.06R

$$
WYZ021-027>030-104>119-201000-
SOUTHERN WYOMING

CITY           SKY/WX    TMP DP  RH WIND       PRES   REMARKS
EVANSTON       FAIR      60  37  42 SE8       30.22S
FORT BRIDGER   FAIR      58  32  37 W9        30.24S
ROCK SPRINGS   FAIR      58  33  39 NW5       30.18F
RAWLINS        FAIR      52  26  36 NW3       30.18S
SARATOGA       FAIR      50  32  50 SE6       30.22S
LARAMIE        FAIR      48  30  49 SE8       30.21S
CHEYENNE       FAIR      60  30  32 W7        30.12S
TORRINGTON     FAIR      60  42  51 NE14      29.94F
PINE BLUFFS    FAIR      50  41  71 SW5       30.05R

$$



USA.gov is the U.S. government's official web portal to all federal, state and local government web resources and services.